| time (UTC) | temp F | wind direction | speed knots | gust knots | rain 1hr in | rain 24hr in | rain mn in | humidity % | barometer mb |
| 20260504021304 | 70 | 188 | 1.7 | 5.2 | 0.00 | 0.03 | 0.00 | 39 | 1009.0 |
| 20260504020804 | 71 | 145 | 2.6 | 4.3 | 0.00 | 0.03 | 0.00 | 39 | 1009.2 |
| 20260504020304 | 71 | 145 | 2.6 | 4.3 | 0.00 | 0.03 | 0.00 | 39 | 1009.2 |
| 20260504015804 | 71 | 145 | 0.9 | 4.3 | 0.00 | 0.03 | 0.00 | 39 | 1009.2 |
| 20260504014804 | 71 | 303 | 0.9 | 2.6 | 0.00 | 0.03 | 0.00 | 38 | 1008.8 |
| 20260504014304 | 72 | 157 | 0.9 | 5.2 | 0.00 | 0.03 | 0.00 | 38 | 1008.8 |
| 20260504013805 | 72 | 303 | 0.9 | 0.0 | 0.00 | 0.03 | 0.00 | 38 | 1008.8 |
| 20260504013304 | 72 | 189 | 1.7 | 2.6 | 0.00 | 0.03 | 0.00 | 38 | 1008.8 |
| 20260504012806 | 72 | 167 | 1.7 | 2.6 | 0.00 | 0.03 | 0.00 | 38 | 1008.5 |
| 20260504012304 | 72 | 168 | 0.9 | 2.6 | 0.00 | 0.03 | 0.00 | 37 | 1008.5 |
| 20260504011806 | 73 | 197 | 2.6 | 6.1 | 0.00 | 0.03 | 0.00 | 36 | 1008.7 |
| 20260503235304 | 77 | 253 | 6.1 | 20.0 | 0.00 | 0.03 | 0.00 | 27 | 1009.2 |
| 20260503233804 | 78 | 167 | 2.6 | 6.1 | 0.00 | 0.03 | 0.00 | 26 | 1009.2 |
| 20260503233305 | 78 | 171 | 5.2 | 6.1 | 0.00 | 0.03 | 0.00 | 28 | 1009.2 |
| 20260503232306 | 79 | 100 | 6.1 | 10.4 | 0.00 | 0.03 | 0.00 | 27 | 1009.0 |
| 20260503231806 | 79 | 325 | 6.1 | 13.9 | 0.00 | 0.03 | 0.00 | 27 | 1009.0 |
| 20260503231316 | 80 | 145 | 6.1 | 13.9 | 0.00 | 0.03 | 0.00 | 26 | 1009.0 |
| 20260503230804 | 82 | 145 | 6.1 | 13.0 | 0.00 | 0.03 | 0.00 | 24 | 1009.4 |
| 20260503230301 | 82 | 153 | 6.1 | 8.7 | 0.00 | 0.03 | 0.00 | 24 | 1009.4 |
| 20260503225804 | 83 | 21 | 5.2 | 10.4 | 0.00 | 0.03 | 0.00 | 24 | 1009.4 |
| 20260503224802 | 82 | 213 | 6.1 | 12.2 | 0.00 | 0.03 | 0.00 | 24 | 1009.2 |
| 20260503224302 | 82 | 157 | 7.0 | 14.8 | 0.00 | 0.03 | 0.00 | 24 | 1009.2 |
| 20260503222801 | 82 | 145 | 7.8 | 12.2 | 0.00 | 0.03 | 0.00 | 24 | 1009.3 |
| 20260503222301 | 82 | 157 | 7.0 | 14.8 | 0.00 | 0.03 | 0.00 | 24 | 1009.3 |
| 20260503221801 | 83 | 190 | 6.1 | 13.0 | 0.00 | 0.03 | 0.00 | 22 | 1009.3 |
| 20260503221302 | 82 | 137 | 7.0 | 10.4 | 0.00 | 0.03 | 0.00 | 25 | 1009.3 |
| 20260503220802 | 82 | 145 | 6.1 | 10.4 | 0.00 | 0.03 | 0.00 | 24 | 1009.5 |
| 20260503220302 | 82 | 145 | 7.0 | 12.2 | 0.00 | 0.03 | 0.00 | 24 | 1009.5 |
| 20260503215801 | 82 | 167 | 7.8 | 14.8 | 0.00 | 0.03 | 0.00 | 26 | 1009.5 |
| 20260503215301 | 81 | 145 | 7.8 | 14.8 | 0.00 | 0.03 | 0.00 | 25 | 1009.5 |
| 20260503213802 | 81 | 145 | 7.8 | 12.2 | 0.00 | 0.03 | 0.00 | 26 | 1009.4 |
| 20260503212801 | 81 | 10 | 8.7 | 12.2 | 0.00 | 0.03 | 0.00 | 27 | 1009.7 |
| 20260503212301 | 80 | 145 | 7.8 | 14.8 | 0.00 | 0.03 | 0.00 | 26 | 1009.7 |
| 20260503211802 | 81 | 145 | 7.8 | 12.2 | 0.00 | 0.03 | 0.00 | 26 | 1009.7 |
| 20260503211302 | 81 | 155 | 8.7 | 11.3 | 0.00 | 0.03 | 0.00 | 27 | 1009.7 |
| 20260503210801 | 80 | 190 | 8.7 | 14.8 | 0.00 | 0.03 | 0.00 | 27 | 1009.9 |
| 20260503210301 | 80 | 145 | 7.8 | 18.2 | 0.00 | 0.03 | 0.00 | 27 | 1009.9 |
| 20260503205802 | 80 | 145 | 7.0 | 18.2 | 0.00 | 0.03 | 0.00 | 27 | 1009.9 |
| 20260503205303 | 80 | 145 | 7.0 | 12.2 | 0.00 | 0.03 | 0.00 | 27 | 1009.9 |
| 20260503204801 | 80 | 145 | 7.8 | 17.4 | 0.00 | 0.03 | 0.00 | 28 | 1010.5 |
| 20260503204302 | 79 | 145 | 8.7 | 18.2 | 0.00 | 0.03 | 0.00 | 28 | 1010.5 |
| 20260503203802 | 79 | 145 | 7.0 | 19.1 | 0.00 | 0.03 | 0.00 | 28 | 1010.5 |
| 20260503203301 | 80 | 134 | 6.1 | 10.4 | 0.00 | 0.03 | 0.00 | 29 | 1010.5 |
| 20260503202301 | 79 | 145 | 9.6 | 15.6 | 0.00 | 0.03 | 0.00 | 28 | 1011.0 |
| 20260503200802 | 78 | 167 | 7.8 | 15.6 | 0.00 | 0.03 | 0.00 | 28 | 1011.3 |
| 20260503200301 | 79 | 145 | 7.8 | 15.6 | 0.00 | 0.03 | 0.00 | 29 | 1011.3 |
| 20260503195301 | 77 | 167 | 7.8 | 14.8 | 0.00 | 0.03 | 0.00 | 27 | 1011.3 |
| 20260503194802 | 77 | 280 | 7.8 | 11.3 | 0.00 | 0.03 | 0.00 | 27 | 1012.0 |
| 20260503194302 | 77 | 219 | 8.7 | 10.4 | 0.00 | 0.03 | 0.00 | 28 | 1012.0 |
| 20260503193802 | 76 | 145 | 8.7 | 13.0 | 0.00 | 0.03 | 0.00 | 29 | 1012.0 |
| 20260503193302 | 76 | 168 | 8.7 | 17.4 | 0.00 | 0.03 | 0.00 | 28 | 1012.0 |
| 20260503192801 | 76 | 190 | 7.8 | 12.2 | 0.00 | 0.03 | 0.00 | 29 | 1012.6 |
| 20260503192305 | 70 | 145 | 6.1 | 2.6 | 0.00 | 0.03 | 0.00 | 39 | 1015.4 |
| 20260503175302 | 68 | 167 | 7.0 | 12.2 | 0.00 | 0.03 | 0.00 | 38 | 1015.4 |
| 20260503174801 | 68 | 167 | 7.8 | 12.2 | 0.00 | 0.03 | 0.00 | 38 | 1016.1 |
| 20260503174301 | 67 | 205 | 8.7 | 17.4 | 0.00 | 0.03 | 0.00 | 38 | 1016.1 |
| 20260503173801 | 67 | 145 | 9.6 | 17.4 | 0.00 | 0.03 | 0.00 | 39 | 1016.1 |
| 20260503173302 | 66 | 145 | 8.7 | 13.0 | 0.00 | 0.03 | 0.00 | 39 | 1016.1 |
| 20260503172802 | 66 | 123 | 7.0 | 26.9 | 0.00 | 0.03 | 0.00 | 39 | 1016.4 |
| 20260503171802 | 65 | 145 | 7.8 | 14.8 | 0.00 | 0.03 | 0.00 | 40 | 1016.3 |
| 20260503171303 | 66 | 239 | 7.0 | 15.6 | 0.00 | 0.03 | 0.00 | 41 | 1016.3 |
| 20260503170803 | 65 | 167 | 7.8 | 15.6 | 0.00 | 0.03 | 0.00 | 41 | 1016.1 |
| 20260503170303 | 65 | 140 | 7.8 | 14.8 | 0.00 | 0.03 | 0.00 | 41 | 1016.1 |
| 20260503150802 | 58 | 145 | 5.2 | 11.3 | 0.00 | 0.03 | 0.00 | 55 | 1018.1 |
| 20260503150302 | 58 | 185 | 5.2 | 7.0 | 0.00 | 0.03 | 0.00 | 56 | 1018.1 |
| 20260503131302 | 51 | 135 | 5.2 | 8.7 | 0.00 | 0.03 | 0.00 | 66 | 1019.4 |
| 20260503130802 | 51 | 145 | 2.6 | 8.7 | 0.00 | 0.03 | 0.00 | 67 | 1019.5 |
| 20260503130302 | 50 | 154 | 3.5 | 7.0 | 0.00 | 0.03 | 0.00 | 68 | 1019.5 |
| 20260503080802 | 47 | 213 | 0.0 | 0.0 | 0.00 | 0.03 | 0.00 | 76 | 1019.5 |
| 20260503080302 | 47 | 257 | 0.0 | 0.0 | 0.00 | 0.03 | 0.00 | 76 | 1019.5 |
| 20260503072803 | 47 | 190 | 0.0 | 0.0 | 0.00 | 0.03 | 0.00 | 75 | 1020.0 |
| 20260503071802 | 47 | 347 | 0.0 | 0.0 | 0.00 | 0.03 | 0.00 | 74 | 1020.0 |
| 20260503071302 | 47 | 151 | 0.0 | 0.0 | 0.00 | 0.03 | 0.00 | 73 | 1020.0 |
| 20260503070302 | 47 | 251 | 0.0 | 0.0 | 0.00 | 0.03 | 0.00 | 73 | 1020.0 |
| 20260503060303 | 47 | 145 | 0.0 | 0.0 | 0.00 | 0.03 | 0.00 | 70 | 1020.3 |
| 20260503054802 | 47 | 145 | 0.0 | 0.0 | 0.00 | 0.03 | 0.00 | 69 | 1020.1 |
| 20260503054302 | 47 | 145 | 0.0 | 0.0 | 0.00 | 0.03 | 0.00 | 69 | 1020.1 |
| 20260503053802 | 47 | 145 | 0.0 | 0.0 | 0.00 | 0.03 | 0.00 | 68 | 1020.1 |
| 20260503053303 | 47 | 145 | 0.0 | 0.0 | 0.00 | 0.03 | 0.00 | 68 | 1020.1 |
| 20260503052803 | 47 | 145 | 0.0 | 0.0 | 0.00 | 0.03 | 0.00 | 68 | 1020.3 |
| 20260503051803 | 47 | 145 | 0.0 | 0.0 | 0.00 | 0.03 | 0.00 | 67 | 1020.3 |
| 20260503051302 | 48 | 145 | 0.0 | 0.0 | 0.00 | 0.03 | 0.00 | 67 | 1020.3 |
| 20260503050819 | 48 | 145 | 0.0 | 0.0 | 0.00 | 0.03 | 0.00 | 66 | 1020.2 |
| 20260503050303 | 48 | 145 | 0.0 | 0.0 | 0.00 | 0.03 | 0.00 | 66 | 1020.2 |
| 20260503045802 | 48 | 145 | 0.0 | 0.0 | 0.00 | 0.03 | 0.03 | 65 | 1020.2 |
| 20260503045304 | 48 | 145 | 0.0 | 0.0 | 0.00 | 0.03 | 0.03 | 65 | 1020.2 |
| 20260503044802 | 49 | 145 | 0.0 | 0.0 | 0.00 | 0.03 | 0.03 | 65 | 1020.3 |
| 20260503043802 | 49 | 167 | 0.0 | 0.0 | 0.00 | 0.03 | 0.03 | 64 | 1020.3 |
| 20260503042803 | 49 | 167 | 0.0 | 0.0 | 0.00 | 0.03 | 0.03 | 64 | 1019.6 |
| 20260503042304 | 49 | 167 | 0.0 | 0.0 | 0.00 | 0.03 | 0.03 | 64 | 1019.6 |
| 20260503041302 | 49 | 167 | 0.0 | 0.0 | 0.00 | 0.03 | 0.03 | 63 | 1019.6 |
| 20260503040802 | 50 | 167 | 0.0 | 0.0 | 0.00 | 0.03 | 0.03 | 62 | 1019.9 |
| 20260503040302 | 50 | 167 | 0.0 | 0.0 | 0.00 | 0.03 | 0.03 | 62 | 1019.9 |
| 20260503035802 | 50 | 167 | 0.0 | 0.0 | 0.00 | 0.03 | 0.03 | 61 | 1019.9 |
| 20260503034803 | 50 | 167 | 0.0 | 0.0 | 0.00 | 0.03 | 0.03 | 60 | 1019.9 |
| 20260503034302 | 50 | 167 | 0.0 | 0.0 | 0.00 | 0.03 | 0.03 | 60 | 1019.9 |
| 20260503033302 | 51 | 167 | 0.0 | 0.0 | 0.00 | 0.03 | 0.03 | 59 | 1019.9 |
| 20260503032304 | 51 | 173 | 0.0 | 0.0 | 0.00 | 0.03 | 0.03 | 59 | 1020.1 |
| 20260503031802 | 51 | 145 | 0.0 | 0.0 | 0.00 | 0.03 | 0.03 | 57 | 1020.1 |
| 20260503031302 | 51 | 145 | 0.0 | 0.0 | 0.00 | 0.03 | 0.03 | 57 | 1020.1 |
| 20260503030803 | 52 | 145 | 0.0 | 0.0 | 0.00 | 0.03 | 0.03 | 55 | 1019.9 |
| 20260503030302 | 52 | 145 | 0.0 | 0.0 | 0.00 | 0.03 | 0.03 | 55 | 1019.9 |
| 20260503025802 | 52 | 145 | 0.0 | 0.0 | 0.00 | 0.03 | 0.03 | 55 | 1019.9 |
| 20260503025305 | 52 | 145 | 0.0 | 0.0 | 0.00 | 0.03 | 0.03 | 55 | 1019.9 |
| 20260503023803 | 53 | 145 | 0.0 | 0.0 | 0.00 | 0.03 | 0.03 | 53 | 1019.7 |
| 20260503023302 | 53 | 145 | 0.0 | 0.0 | 0.00 | 0.03 | 0.03 | 52 | 1019.7 |
| 20260503022343 | 53 | 145 | 0.0 | 0.0 | 0.00 | 0.03 | 0.03 | 51 | 1019.5 |
| 20260503021802 | 54 | 145 | 0.0 | 0.0 | 0.00 | 0.03 | 0.03 | 50 | 1019.5 |